sat.trackr.live / text

‹ back to catalog

NEONSAT-1

NORAD 59587 · 2024-077A

PAYLOAD ACTIVE UNKNOWN

§ Identity

Operator
Country
SKOR
Launch date
2024-04-23
Launch site
RLLB
Launch vehicle
Mass (kg)
RCS (m²)

External: N2YO · Heavens-Above · Gunter

§ Orbital elements

Epoch: 2026-09-22T22:56:59.872992Z

Period
93.47 min
Inclination
97.3445°
Eccentricity
0.0008577
Mean motion
15.40663794 rev/d
Perigee alt
438.3 km
Apogee alt
450.0 km
Semi-major
6,822.3 km
B*
2.4985e-4
RAAN
350.3119°
Arg perigee
48.0098°
Mean anomaly
312.1877°
Rev number
13,477

§ Raw data

NEONSAT-11 59587U 24077A   26265.95624853  .00010117  00000+0  24985-3 0  99972 59587  97.3445 350.3119 0008577  48.0098 312.1877 15.40663794134772

JSON: /api/v1/satellites/59587 · /tle

For live sub-satellite position, see the globe view (requires WebGL).

§ Visibility from observer

Set your observer location to see the next 7 days of passes ≥ 10°. The values pass through the URL so the page stays shareable.

No JS? Fill the form by hand. The geolocation button needs JavaScript.

§ Radio — SatNOGS DB

ModeDescriptionDownlinkUplink
FM Mode S 2.243 GHz

1 transmitter · refreshed weekly from db.satnogs.org